Montauk, NY

1:09 AM EDT on July 28, 2017 (GMT -0400)
Montauk

Weather History for KMTP - October, 2013

Change the Weather History Date:

Wednesday, October 23, 2013

  Actual Average (KHTO) Record (KHTO)
Temperature  
Mean Temperature 50 °F -  
Max Temperature 54 °F 61 °F 72 °F (1947)
Min Temperature 46 °F 42 °F 28 °F (1982)
Degree Days  
Heating Degree Days 16    
Moisture  
Dew Point 35 °F    
Average Humidity 54    
Maximum Humidity 71    
Minimum Humidity 44    
Precipitation  
Precipitation 0.04 in - - ()
Sea Level Pressure  
Sea Level Pressure 29.72 in    
Wind  
Wind Speed 6 mph (North)    
Max Wind Speed 12 mph    
Max Gust Speed 18 mph    
Averages and records for this station are not official NWS values.
T = Trace of Precipitation, MM = Missing Value Source: NWS Daily Summary

Daily Weather History Graph

Daily Weather History Graph

Search for Another Location

Airport or City:

Trip Planner

Search our weather history database for the weather conditions in past years. The results will help you decide how hot, cold, wet, or windy it might be!

Date:

Astronomy

Oct. 23, 2013 Rise Set
Actual Time 7:08 AM EDT 5:54 PM EDT
Civil Twilight 6:40 AM EDT 6:22 PM EDT
Nautical Twilight 6:08 AM EDT 6:55 PM EDT
Astronomical Twilight 5:36 AM EDT 7:26 PM EDT
Moon 9:22 PM EDT (10/23) 11:24 AM EDT (10/23)
Length of Visible Light 11h 42m
Length of Day
10h 46m
Waning Gibbous, 79% of the Moon is Illuminated
Oct 23
Waning Gibbous
Oct 26
Last Quarter
Nov 3
New
Nov 10
First Quarter
Nov 17
Full

Hourly Weather History & Observations

Time (EDT) Temp. Dew Point Humidity Pressure Visibility Wind Dir Wind Speed Gust Speed Precip Events Conditions
12:54 AM 53.1 °F 39.9 °F 61% 29.82 in - North 6.9 mph - N/A   Unknown
1:54 AM 53.1 °F 37.0 °F 55% 29.83 in - North 6.9 mph - N/A   Unknown
2:54 AM 52.0 °F 34.0 °F 50% 29.83 in - North 6.9 mph - N/A   Unknown
3:54 AM 52.0 °F 32.0 °F 47% 29.81 in - North 6.9 mph - N/A   Unknown
4:54 AM 51.1 °F 32.0 °F 48% 29.79 in - NNE 6.9 mph - N/A   Unknown
5:54 AM 51.1 °F 30.9 °F 46% 29.78 in - NNE 6.9 mph - N/A   Unknown
6:54 AM 51.1 °F 30.9 °F 46% 29.78 in - NE 5.8 mph - N/A   Unknown
7:54 AM 51.1 °F 30.0 °F 44% 29.78 in - Variable 3.5 mph - N/A   Unknown
8:54 AM 52.0 °F 30.9 °F 45% 29.78 in - NE 3.5 mph - N/A   Unknown
9:54 AM 53.1 °F 32.0 °F 45% 29.76 in - NNE 4.6 mph - N/A   Unknown
10:54 AM 53.1 °F 34.0 °F 48% 29.74 in - North 5.8 mph - N/A   Unknown
11:54 AM 53.1 °F 33.1 °F 47% 29.72 in - North 5.8 mph - N/A   Unknown
12:54 PM 52.0 °F 33.1 °F 49% 29.68 in - North 6.9 mph - N/A   Unknown
1:54 PM 52.0 °F 35.1 °F 53% 29.64 in - North 6.9 mph - N/A   Unknown
2:54 PM 50.0 °F 37.0 °F 61% 29.62 in - North 8.1 mph - N/A   Unknown
3:54 PM 46.9 °F 37.9 °F 71% 29.63 in - Variable 3.5 mph - 0.03 in   Unknown
4:54 PM 48.0 °F 39.0 °F 71% 29.63 in - NNE 3.5 mph - 0.01 in   Unknown
5:54 PM 48.9 °F 37.9 °F 66% 29.64 in - Calm Calm - N/A   Unknown
6:54 PM 48.9 °F 37.9 °F 66% 29.64 in - Calm Calm - N/A   Unknown
7:54 PM 50.0 °F 37.0 °F 61% 29.65 in - North 3.5 mph - N/A   Unknown
8:54 PM 50.0 °F 35.1 °F 57% 29.66 in - NW 3.5 mph - N/A   Unknown
9:54 PM 51.1 °F 34.0 °F 52% 29.68 in - WNW 8.1 mph - N/A   Unknown
10:54 PM 51.1 °F 36.0 °F 56% 29.69 in - NW 10.4 mph - N/A   Unknown
11:54 PM 51.1 °F 35.1 °F 54% 29.70 in - WNW 11.5 mph 18.4 mph N/A   Unknown